Simultaneous Nadir Overpasses (SNOs) Predictions

Prediction of SNOs near equator between NOAA-19 and NPP Satellite Orbit:

Table of predicted SNOs near equator for the next 14.0 days since TLE Epoch: 3/10/2012
Index Date (NOAA-19) Time (NOAA-19) NOAA-19 Lat,Lon Date (NPP) Time (NPP) NPP Lat,Lon Distance(km) Time Diff (sec)
1 03/16/2012 10:56:04 -29.98,-146.15 03/16/2012 10:52:39 -29.77,-147.16 99.65 205
2 03/16/2012 11:47:05 29.97, 21.09 03/16/2012 11:43:27 29.76, 20.15 94.69 218
3 03/16/2012 12:38:09 -29.95,-171.67 03/16/2012 12:34:09 -29.78,-172.53 85.80 240
4 03/16/2012 13:29:10 29.95, -4.42 03/16/2012 13:24:57 29.76, -5.23 80.83 253
5 03/16/2012 14:20:15 -29.99, 162.80 03/16/2012 14:15:40 -29.84, 162.07 71.89 275
6 03/16/2012 15:11:16 29.98, -29.95 03/16/2012 15:06:28 29.83, -30.62 66.92 288
7 03/16/2012 16:02:20 -29.96, 137.28 03/16/2012 15:57:10 -29.85, 136.70 58.05 310
8 03/16/2012 16:53:21 29.96, -55.47 03/16/2012 16:47:58 29.84, -56.00 53.07 323
9 03/16/2012 17:44:26 -30.00, 111.75 03/16/2012 17:38:41 -29.91, 111.30 44.16 345
10 03/16/2012 18:35:27 29.99, -81.00 03/16/2012 18:29:29 29.90, -81.39 39.17 358
11 03/16/2012 19:26:31 -29.97, 86.24 03/16/2012 19:20:11 -29.92, 85.93 30.33 380
12 03/16/2012 20:17:32 29.97,-106.52 03/16/2012 20:10:59 29.91,-106.77 25.33 393
13 03/16/2012 21:08:36 -29.95, 60.72 03/16/2012 21:01:41 -29.93, 60.55 16.52 415
14 03/16/2012 21:59:37 29.95,-132.03 03/16/2012 21:52:29 29.91,-132.15 11.49 428
15 03/16/2012 22:50:41 -29.98, 35.19 03/16/2012 22:43:11 -29.99, 35.16 3.05 450
16 03/16/2012 23:39:24 21.96,-155.44 03/16/2012 23:31:42 21.96,-155.45 0.55 462
17 03/17/2012 00:23:39 1.91, 17.38 03/17/2012 00:15:37 1.90, 17.39 2.26 482
18 03/17/2012 01:14:55 -1.07,-175.57 03/17/2012 01:06:40 -1.07,-175.50 7.53 495
19 03/17/2012 02:06:20 -0.16, -8.62 03/17/2012 01:57:43 -0.23, -8.46 18.46 517
20 03/17/2012 02:57:35 0.95, 158.45 03/17/2012 02:48:45 1.00, 158.66 24.17 530
21 03/17/2012 03:49:01 -2.24, -34.61 03/17/2012 03:39:48 -2.29, -34.30 34.98 553
22 03/17/2012 04:40:15 2.97, 132.47 03/17/2012 04:30:50 3.06, 132.83 40.85 565
23 03/17/2012 05:31:41 -4.26, -60.59 03/17/2012 05:21:53 -4.35, -60.14 51.53 588
24 03/17/2012 06:22:56 5.0
